Regional Weather Roundup
Issued by NWS

Home | Current Version | Previous Version | Graphics & Text | Print | Product List | Glossary On
Versions: 1 2 3 4 5 6 7 8 9 10 11 12 13 14 15 16 17 18 19 20 21 22 23 24 25 26 27 28 29 30 31 32 33 34 35 36 37 38 39 40 41 42 43 44 45 46 47 48 49 50
000
ASUS43 KBIS 270110
RWRND
NORTH DAKOTA REGIONAL WEATHER ROUNDUP
NATIONAL WEATHER SERVICE EASTERN NORTH DAKOTA/GRAND FORKS ND
800 PM CDT FRI MAY 26 2017

  NOTE: "FAIR" INDICATES FEW OR NO CLOUDS BELOW 12,000 FEET WITH NO
  SIGNIFICANT WEATHER AND/OR OBSTRUCTIONS TO VISIBILITY.

NDZ001>003-009>011-017-270200-
...NORTHWEST NORTH DAKOTA...

CITY           SKY/WX    TMP DP  RH WIND       PRES   REMARKS
WILLISTON      FAIR      68  34  28 NW15G24   29.79R
MINOT          PTSUNNY   67  33  28 W14       29.74R
MINOT AFB      FAIR      66  35  30 NW13      29.73R
$$

NDZ018>021-031>035-040>046-270200-
...SOUTHWEST NORTH DAKOTA...

CITY           SKY/WX    TMP DP  RH WIND       PRES   REMARKS
BISMARCK       FAIR      68  36  30 NW7       29.80S
DICKINSON      FAIR      62  32  32 W8        29.83R
GARRISON         N/A     66  33  29 NW17      29.76S
HETTINGER      PTSUNNY   64  32  30 W16       29.88R
$$

NDZ004>008-012>016-024-026-027-054-270200-
...NORTHEAST NORTH DAKOTA...

CITY           SKY/WX    TMP DP  RH WIND       PRES   REMARKS
GRAND FORKS    FAIR      68  45  43 W16       29.72R
GRAND FORKS AF FAIR      65  42  43 W15       29.73R
DEVILS LAKE    FAIR      63  42  46 W16       29.75S
$$

NDZ022-023-025-028>030-036>039-047>053-270200-
...SOUTHEAST NORTH DAKOTA...

CITY           SKY/WX    TMP DP  RH WIND       PRES   REMARKS
JAMESTOWN      FAIR      63  42  46 W13       29.78R
FARGO          FAIR      67  43  41 W16G22    29.75S
WAHPETON       FAIR      63  39  42 W12       29.79R
$$



USA.gov is the U.S. government's official web portal to all federal, state and local government web resources and services.